Regional Weather Roundup
Issued by NWS

Home | Current Version | Previous Version | Graphics & Text | Print | Product List | Glossary Off
Versions: 1 2 3 4 5 6 7 8 9 10 11 12 13 14 15 16 17 18 19 20 21 22 23 24 25 26 27 28 29 30 31 32 33 34 35 36 37 38 39 40 41 42 43 44 45 46 47 48 49 50

000
ASUS44 KFWD 232115
RWRTX
NORTH TEXAS HOURLY WEATHER ROUNDUP
NATIONAL WEATHER SERVICE FORT WORTH TX
400 PM CDT THU OCT 23 2014

NOTE: "FAIR" INDICATES FEW OR NO CLOUDS BELOW 12,000 FEET WITH NO
SIGNIFICANT WEATHER AND/OR OBSTRUCTIONS TO VISIBILITY.

TXZ118-119-232200-
DALLAS/FORT WORTH METROPLEX

CITY           SKY/WX    TMP DP  RH WIND       PRES   REMARKS
DFW AIRPORT    MOSUNNY   78  55  44 VRB6      30.07F
DALLAS LOVE    MOSUNNY   79  56  45 S8        30.07F
FTW MEACHAM    SUNNY     80  58  46 VRB3      30.05F
DAL-EXECUTIVE  SUNNY     79  56  45 VRB7      30.07F
FTW-ALLIANCE   MOSUNNY   80  57  45 S6        30.06F
FTW-NAS-JRB    MOSUNNY   85  56  37 SE8       30.10F
FTW-SPINKS     MOSUNNY   81  55  41 S5        30.08F
ARLINGTON      SUNNY     79  54  41 SE7       30.07F
GRAND PRAIRIE  SUNNY     79  64  61 MISG      30.10S
ADDISON        MOSUNNY   77  55  47 S7        30.08F
MESQUITE       MOSUNNY   77  55  47 SE3       30.08F
LANCASTER      PTSUNNY   77  53  43 S6        30.08F
$$

TXZ091>094-102>105-117-120-121-131>134-232200-
NORTH CENTRAL TEXAS

CITY           SKY/WX    TMP DP  RH WIND       PRES   REMARKS
SHRMAN/DENISON SUNNY     77  60  55 SE9       30.09S
GAINESVILLE    MOSUNNY   77  58  51 SE9       30.08F
BOWIE          PTSUNNY   80  58  47 S7        30.06F
BRIDGEPORT     PTSUNNY   80  60  49 S3        30.07F
DECATUR        MOSUNNY   80  56  43 S7        30.07S
DENTON         SUNNY     79  57  46 VRB6      30.06F
MCKINNEY       SUNNY     75  56  51 VRB7      30.08F
GREENVILLE     CLOUDY    75  52  43 S5        30.10F
ROCKWALL       SUNNY     76  56  50 CALM      30.08F
TERRELL        MOSUNNY   75  57  53 VRB3      30.09F
WAXAHACHIE     SUNNY     78  57  48 S5        30.09F
CLEBURNE       SUNNY     81  59  47 VRB6      30.08F
GRANBURY       MOSUNNY   82  58  43 CALM      30.07S
$$

TXZ083>090-098>101-113>116-127>130-139>142-154-155-232200-
WESTERN NORTH TEXAS

CITY           SKY/WX    TMP DP  RH WIND       PRES   REMARKS
WICHITA FALLS  MOSUNNY   81  59  47 SW7       30.03F
WF-KICKAPOO    MOSUNNY   82  56  41 W12       30.05F
VERNON         SUNNY     82  59  44 S9        30.04F
ABILENE        SUNNY     82  59  45 S10       30.07F
ABILENE-DYESS  MOSUNNY   82  60  48 SW13      30.05F
BRECKENRIDGE   MOSUNNY   84  56  38 SW6       30.05S HAZE
GRAHAM         PTSUNNY   83  60  46 S3        30.03F
MINERAL WELLS  MOSUNNY   82  58  43 W3        30.04F
STEPHENVILLE   SUNNY     79  58  47 CALM      30.10S
COMANCHE       CLOUDY    82  61  48 SW5       30.07F
BROWNWOOD      PTSUNNY   81  59  47 CALM      30.07F
COLEMAN        MOSUNNY   82  61  47 W6        30.07F
BRADY          MOSUNNY   82  57  42 S7        30.08F
$$

TXZ143>147-156>162-174-175-232200-
CENTRAL TEXAS

CITY           SKY/WX    TMP DP  RH WIND       PRES   REMARKS
WACO           SUNNY     80  56  43 SW3       30.08F
WACO-TSTC      SUNNY     81  55  41 CALM      30.08
WACO-MCGREGOR  SUNNY     81  55  41 S6        30.09S
HILLSBORO      SUNNY     81  55  40 SE3       30.07F
CORSICANA      SUNNY     78  56  46 VRB3      30.10F
MEXIA          SUNNY     76  57  50 CALM      30.08F
HEARNE           N/A     78  56  46 CALM      30.09F HAZE
CAMERON        SUNNY     80  57  46 S3        30.08F
TEMPLE         SUNNY     81  55  41 CALM      30.07F
KILLEEN        PTSUNNY   79  60  53 E6        30.07F
KILLEEN-SKYLRK MOSUNNY   79  59  50 E6        30.07F
FORT HOOD      CLOUDY    84  61  45 SE6       30.07F
GATESVILLE     SUNNY     81  61  50 S5        30.09F
HAMILTON       PTSUNNY   81  58  45 CALM      30.08F
LAMPASAS       SUNNY     78  62  57 CALM      30.07F
$$

TXZ095>097-106>112-122>126-135>138-148>153-164>167-232200-
EAST TEXAS

CITY           SKY/WX    TMP DP  RH WIND       PRES   REMARKS
PARIS          MOSUNNY   70  50  49 E5        30.12S
SULPHUR SPRNGS SUNNY     76  52  43 CALM      30.12F
MOUNT PLEASANT SUNNY     73  50  44 CALM      30.12F
MINEOLA        SUNNY     75  54  46 CALM      30.11S
TYLER          SUNNY     77  54  44 VRB5      30.10F
LONGVIEW       SUNNY     75  52  44 NE6       30.10F
MARSHALL       SUNNY     73  47  39 N7        30.13F
ATHENS         MOSUNNY   73  54  49 CALM      30.08F
PALESTINE      SUNNY     75  55  50 E3        30.11S
JACKSONVILLE   SUNNY     73  53  50 E3        30.13S
HENDERSON      SUNNY     73  52  46 N3        30.12S
NACOGDOCHES    MOSUNNY   70  48  46 NE6       30.12S
LUFKIN         MOSUNNY   74  52  46 N6        30.10S
$$

SUPPLEMENTAL OBSERVATIONS (CENTRAL)

CITY           SKY/WX    TMP DP  RH WIND       PRES   REMARKS
LAKE TEXOMA      N/A     73  59  60 E5          N/A
CADDO GRASSLND   N/A     73  54  49 E5          N/A
PAT MAYSE LAKE   N/A     70  52  52 SE3         N/A
GREENVILLE       N/A     75  52  43 E6          N/A
CEDAR HILL       N/A     82  57  42 SE3         N/A
ATHENS           N/A     77  54  44 SE7         N/A
PALESTINE        N/A     77  55  47 NE2         N/A
MCGREGOR         N/A     82  57  42 SW2         N/A
TEMPLE           N/A     81  57  44 E3          N/A
$$

SUPPLEMENTAL OBSERVATIONS (WEST)

CITY           SKY/WX    TMP DP  RH WIND       PRES   REMARKS
MILLERS CREEK    N/A     82  63  51 S8          N/A
POSSUM KINGDOM   N/A     84  57  39 S5          N/A
LBJ GRASSLAND    N/A     82  57  42 S5          N/A
GRANBURY         N/A     81  57  44 S3          N/A
HAMBY            N/A     82  59  44 S12         N/A
COLORADO BEND    N/A     79  59  50 S5          N/A
$$

SUPPLEMENTAL OBSERVATIONS (EAST)

CITY           SKY/WX    TMP DP  RH WIND       PRES   REMARKS
CLARKSVILLE      N/A     73  52  46 NE5         N/A
TEXARKANA        N/A     70  45  40 SE1         N/A
LINDEN           N/A     72  48  43 E3          N/A
CADDO LAKE       N/A     73  50  43 NE3         N/A
GILMER           N/A     75  52  43 E2          N/A
HENDERSON        N/A     73  52  46 NE7         N/A
LUFKIN           N/A     72  52  49 MISG        N/A
N SABINE NF      N/A     66  54  63 MISG        N/A
$$

SUPPLEMENTAL OBSERVATIONS ARE A COLLECTION OF AUTOMATED INSTRUMENTS
THAT ARE MAINTAINED BY A VARIETY OF FEDERAL AND STATE AGENCIES.
CERTAIN ELEMENTS...SUCH AS HUMIDITY VALUES AND SUSTAINED WIND
SPEEDS...MAY BE APPROXIMATED.




USA.gov is the U.S. government's official web portal to all federal, state and local government web resources and services.